THORAD DELTA 1 DEB, 8180

Orbit data source: Space-Track

THORAD DELTA 1 DEB, 8180 is space debris in SSO originally from a launch on Fri, 15 Nov 1974 UTC launched from the Air Force Western Test Range (AFWTR). Debris objects in space refer to the collection of defunct objects orbiting the Earth. Examples of debris include non-operational satellites, rocket bodies, and fragments generated from explosions, collisions, or faulty payload assembly.

Loading next visibility...
Identifier
8180, 1974-089AW
Orbit
SSO
Country
Flag of USUS
Related business
Manufacturer
Unknown
Mission
Spacecraft
Bus & Motor
Unknown
Mass
Unknown
Launch date (UTC)
1974-11-15 (51 years ago)
Launch vehicle
Unknown
Launch site
Air Force Western Test Range (AFWTR)
Object type
Payload
Rocket body
Debris
Shape & HBR
Unknown shape, 0.2 m
Radar Cross Section
Medium (>0.1 m² and <1 m²)

Expand to show TLE details & history
Last TLE update: 18 hours ago

TLE from 18 hours ago
0 THORAD DELTA 1 DEB
1 08180U 74089AW  26072.51743127  .00000049  00000-0  64230-3 0  9993
2 08180 100.8863 160.4229 0110560 313.7920 116.3342 12.40175398321283
Epoch: 2026-03-13T12:25Z
TLE epoch observation values (Epoch: 2026-03-13T12:25:06.061Z)
Latitude
68.4975°
Longitude
133.93062°
Altitude
1,557.021 km
Speed
7.077 km/s
True Right ascension
08h 45m 25s
True Declination
68° 23' 31"
Sunlit
Object was in daylight at epoch
Visualization orbit readout
Latitude
Unknown
Longitude
Unknown
Altitude
Unknown
Speed
Unknown
Apparent Right ascension
Unknown
Apparent Declination
Unknown
Sunlit
N/A
Visualization observer readout
Local Sidereal Time
10:29:32
Azimuth
Unknown
Elevation
Unknown
Doppler factor
Unknown
Orbital elements
Apogee altitude
1,590.508 km
Perigee altitude
1,416.232 km
Semi-major axis
7,881.507 km
Eccentricity
0.01106
Inclination
100.8863°
RAAN
160.4229°
Arg. of periapsis
313.792°
True anomaly
117.46265°
Mean anomaly
116.3342°
Eccentric anomaly
116.89912°
Mean motion
3.10191 °/min
Orbital period
116.06 mins
BSTAR
0.0006423
Loading maneuver chart data...
Computing Atmospheric mass density...

Documentation

Showing up to 5 results
|